| time (UTC) | temp F | wind direction | speed MPH | gust MPH | rain 1hr in | rain 24hr in | rain mn in | humidity % | barometer mb |
| 20260902172016 | 73 | 318 | 2.0 | 5.0 | 0.00 | 0.00 | 0.00 | 55 | 1020.3 |
| 20260902171056 | 74 | 293 | 2.0 | 5.0 | 0.00 | 0.00 | 0.00 | 54 | 1020.4 |
| 20260902170018 | 74 | 296 | 2.0 | 5.0 | 0.00 | 0.00 | 0.00 | 55 | 1020.4 |
| 20260902165016 | 74 | 287 | 3.0 | 6.0 | 0.00 | 0.00 | 0.00 | 53 | 1020.4 |
| 20260902164016 | 75 | 291 | 3.0 | 4.0 | 0.00 | 0.00 | 0.00 | 53 | 1020.2 |
| 20260902163016 | 75 | 301 | 2.0 | 6.0 | 0.00 | 0.00 | 0.00 | 52 | 1020.2 |
| 20260902162015 | 76 | 274 | 3.0 | 9.0 | 0.00 | 0.00 | 0.00 | 50 | 1020.2 |
| 20260902161035 | 76 | 323 | 3.0 | 7.0 | 0.00 | 0.00 | 0.00 | 50 | 1020.1 |
| 20260902160015 | 76 | 280 | 3.0 | 8.0 | 0.00 | 0.00 | 0.00 | 50 | 1020.1 |
| 20260902155016 | 76 | 215 | 1.0 | 4.0 | 0.00 | 0.00 | 0.00 | 51 | 1020.1 |
| 20260902154036 | 76 | 250 | 2.0 | 7.0 | 0.00 | 0.00 | 0.00 | 49 | 1020.2 |
| 20260902153017 | 75 | 293 | 3.0 | 6.0 | 0.00 | 0.00 | 0.00 | 50 | 1020.3 |
| 20260902152016 | 76 | 238 | 2.0 | 4.0 | 0.00 | 0.00 | 0.00 | 51 | 1020.4 |
| 20260902151015 | 77 | 270 | 5.0 | 9.0 | 0.00 | 0.00 | 0.00 | 49 | 1020.4 |
| 20260902150016 | 76 | 266 | 5.0 | 11.0 | 0.00 | 0.00 | 0.00 | 48 | 1020.4 |
| 20260902145016 | 77 | 288 | 5.0 | 11.0 | 0.00 | 0.00 | 0.00 | 47 | 1020.4 |
| 20260902144018 | 77 | 253 | 4.0 | 10.0 | 0.00 | 0.00 | 0.00 | 46 | 1020.3 |
| 20260902143016 | 78 | 229 | 4.0 | 9.0 | 0.00 | 0.00 | 0.00 | 46 | 1020.4 |
| 20260902142017 | 78 | 246 | 5.0 | 13.0 | 0.00 | 0.00 | 0.00 | 45 | 1020.4 |
| 20260902141016 | 78 | 249 | 6.0 | 12.0 | 0.00 | 0.00 | 0.00 | 45 | 1020.4 |
| 20260902140036 | 77 | 244 | 2.0 | 5.0 | 0.00 | 0.00 | 0.00 | 46 | 1020.4 |
| 20260902135015 | 78 | 257 | 5.0 | 10.0 | 0.00 | 0.00 | 0.00 | 46 | 1020.5 |
| 20260902134016 | 77 | 215 | 4.0 | 8.0 | 0.00 | 0.00 | 0.00 | 47 | 1020.5 |
| 20260902133017 | 77 | 243 | 3.0 | 9.0 | 0.00 | 0.00 | 0.00 | 47 | 1020.7 |
| 20260902132017 | 76 | 233 | 2.0 | 6.0 | 0.00 | 0.00 | 0.00 | 49 | 1020.8 |
| 20260902131017 | 78 | 277 | 5.0 | 10.0 | 0.00 | 0.00 | 0.00 | 47 | 1020.9 |
| 20260902130016 | 78 | 278 | 6.0 | 11.0 | 0.00 | 0.00 | 0.00 | 48 | 1020.8 |
| 20260902125017 | 79 | 285 | 4.0 | 10.0 | 0.00 | 0.00 | 0.00 | 48 | 1020.9 |
| 20260902124017 | 77 | 220 | 3.0 | 10.0 | 0.00 | 0.00 | 0.00 | 50 | 1021.0 |
| 20260902123016 | 78 | 262 | 3.0 | 9.0 | 0.00 | 0.00 | 0.00 | 50 | 1021.1 |
| 20260902122016 | 77 | 194 | 3.0 | 9.0 | 0.00 | 0.00 | 0.00 | 50 | 1021.1 |
| 20260902121016 | 77 | 247 | 4.0 | 8.0 | 0.00 | 0.00 | 0.00 | 51 | 1021.2 |
| 20260902120017 | 76 | 240 | 3.0 | 10.0 | 0.00 | 0.00 | 0.00 | 55 | 1021.4 |
| 20260902115017 | 73 | 305 | 4.0 | 12.0 | 0.00 | 0.00 | 0.00 | 56 | 1021.5 |
| 20260902114016 | 74 | 294 | 3.0 | 6.0 | 0.00 | 0.00 | 0.00 | 56 | 1021.6 |
| 20260902113016 | 74 | 247 | 3.0 | 8.0 | 0.00 | 0.00 | 0.00 | 56 | 1021.5 |
| 20260902112018 | 74 | 249 | 1.0 | 4.0 | 0.00 | 0.00 | 0.00 | 57 | 1021.5 |
| 20260902111018 | 73 | 123 | 2.0 | 4.0 | 0.00 | 0.00 | 0.00 | 57 | 1021.6 |
| 20260902110036 | 73 | 187 | 2.0 | 5.0 | 0.00 | 0.00 | 0.00 | 58 | 1021.8 |
| 20260902105017 | 72 | 187 | 3.0 | 6.0 | 0.00 | 0.00 | 0.00 | 58 | 1021.8 |
| 20260902104036 | 73 | 165 | 1.0 | 3.0 | 0.00 | 0.00 | 0.00 | 60 | 1021.9 |
| 20260902103015 | 72 | 112 | 2.0 | 6.0 | 0.00 | 0.00 | 0.00 | 60 | 1022.0 |
| 20260902102017 | 72 | 156 | 1.0 | 5.0 | 0.00 | 0.00 | 0.00 | 62 | 1022.1 |
| 20260902101015 | 72 | 75 | 3.0 | 5.0 | 0.00 | 0.00 | 0.00 | 62 | 1022.1 |
| 20260902100017 | 72 | 95 | 2.0 | 6.0 | 0.00 | 0.00 | 0.00 | 60 | 1022.1 |
| 20260902095016 | 72 | 196 | 0.0 | 1.0 | 0.00 | 0.00 | 0.00 | 61 | 1022.2 |
| 20260902094017 | 72 | 168 | 3.0 | 7.0 | 0.00 | 0.00 | 0.00 | 59 | 1022.3 |
| 20260902093017 | 73 | 103 | 2.0 | 6.0 | 0.00 | 0.00 | 0.00 | 61 | 1022.2 |
| 20260902092015 | 72 | 119 | 3.0 | 7.0 | 0.00 | 0.00 | 0.00 | 60 | 1022.2 |
| 20260902091017 | 72 | 160 | 3.0 | 7.0 | 0.00 | 0.00 | 0.00 | 63 | 1022.1 |
| 20260902090015 | 71 | 119 | 2.0 | 4.0 | 0.00 | 0.00 | 0.00 | 63 | 1022.2 |
| 20260902085016 | 71 | 119 | 2.0 | 5.0 | 0.00 | 0.00 | 0.00 | 64 | 1022.3 |
| 20260902084016 | 70 | 118 | 2.0 | 3.0 | 0.00 | 0.00 | 0.00 | 65 | 1022.3 |
| 20260902083017 | 68 | 72 | 1.0 | 2.0 | 0.00 | 0.00 | 0.00 | 68 | 1022.3 |
| 20260902082019 | 68 | 66 | 0.0 | 1.0 | 0.00 | 0.00 | 0.00 | 68 | 1022.2 |
| 20260902081039 | 68 | 57 | 1.0 | 3.0 | 0.00 | 0.00 | 0.00 | 66 | 1022.2 |
| 20260902080037 | 66 | 205 | 0.0 | 1.0 | 0.00 | 0.00 | 0.00 | 71 | 1022.2 |
| 20260902075015 | 66 | 205 | 0.0 | 2.0 | 0.00 | 0.00 | 0.00 | 71 | 1022.4 |
| 20260902074018 | 65 | 203 | 1.0 | 4.0 | 0.00 | 0.00 | 0.00 | 71 | 1022.3 |
| 20260902073016 | 64 | 194 | 1.0 | 4.0 | 0.00 | 0.00 | 0.00 | 73 | 1022.2 |
| 20260902072017 | 63 | 201 | 0.0 | 2.0 | 0.00 | 0.00 | 0.00 | 76 | 1022.2 |
| 20260902071018 | 62 | 0.0 | 0.0 | 0.00 | 0.00 | 0.00 | 79 | 1022.2 | |
| 20260902070036 | 61 | 0.0 | 0.0 | 0.00 | 0.00 | 0.00 | 80 | 1022.2 | |
| 20260902065016 | 60 | 0.0 | 0.0 | 0.00 | 0.00 | 0.00 | 81 | 1022.2 | |
| 20260902064019 | 59 | 197 | 1.0 | 2.0 | 0.00 | 0.00 | 0.00 | 82 | 1022.2 |
| 20260902063018 | 58 | 190 | 1.0 | 2.0 | 0.00 | 0.00 | 0.00 | 84 | 1022.2 |
| 20260902062036 | 57 | 189 | 3.0 | 4.0 | 0.00 | 0.00 | 0.00 | 85 | 1022.2 |
| 20260902061059 | 56 | 191 | 2.0 | 5.0 | 0.00 | 0.00 | 0.00 | 86 | 1022.1 |
| 20260902060017 | 55 | 185 | 1.0 | 3.0 | 0.00 | 0.00 | 0.00 | 88 | 1022.0 |
| 20260902055016 | 54 | 189 | 2.0 | 4.0 | 0.00 | 0.00 | 0.00 | 88 | 1022.1 |
| 20260902054016 | 54 | 189 | 2.0 | 4.0 | 0.00 | 0.00 | 0.00 | 89 | 1022.1 |
| 20260902053016 | 53 | 189 | 2.0 | 4.0 | 0.00 | 0.00 | 0.00 | 89 | 1021.9 |
| 20260902052017 | 53 | 189 | 2.0 | 5.0 | 0.00 | 0.00 | 0.00 | 89 | 1021.9 |
| 20260902051016 | 52 | 184 | 2.0 | 4.0 | 0.00 | 0.00 | 0.00 | 90 | 1021.9 |
| 20260902050021 | 52 | 197 | 1.0 | 4.0 | 0.00 | 0.00 | 0.00 | 89 | 1021.8 |
| 20260902045016 | 52 | 187 | 1.0 | 3.0 | 0.00 | 0.00 | 0.00 | 90 | 1021.9 |
| 20260902044015 | 51 | 173 | 2.0 | 4.0 | 0.00 | 0.00 | 0.00 | 89 | 1021.8 |
| 20260902043016 | 52 | 166 | 0.0 | 1.0 | 0.00 | 0.00 | 0.00 | 89 | 1021.8 |
| 20260902042036 | 52 | 166 | 1.0 | 4.0 | 0.00 | 0.00 | 0.00 | 89 | 1021.7 |
| 20260902041018 | 52 | 164 | 1.0 | 4.0 | 0.00 | 0.00 | 0.00 | 89 | 1021.8 |
| 20260902040016 | 52 | 161 | 1.0 | 4.0 | 0.00 | 0.00 | 0.00 | 89 | 1021.7 |
| 20260902035017 | 52 | 159 | 0.0 | 1.0 | 0.00 | 0.00 | 0.00 | 89 | 1021.7 |
| 20260902034016 | 52 | 0.0 | 0.0 | 0.00 | 0.00 | 0.00 | 89 | 1021.8 | |
| 20260902033038 | 52 | 0.0 | 0.0 | 0.00 | 0.00 | 0.00 | 89 | 1021.8 | |
| 20260902032016 | 52 | 0.0 | 0.0 | 0.00 | 0.00 | 0.00 | 89 | 1021.8 | |
| 20260902031036 | 53 | 0.0 | 0.0 | 0.00 | 0.00 | 0.00 | 89 | 1021.7 | |
| 20260902030016 | 53 | 159 | 0.0 | 1.0 | 0.00 | 0.00 | 0.00 | 89 | 1021.8 |
| 20260902025056 | 53 | 159 | 0.0 | 1.0 | 0.00 | 0.00 | 0.00 | 89 | 1022.0 |
| 20260902024037 | 53 | 0.0 | 0.0 | 0.00 | 0.00 | 0.00 | 88 | 1022.1 | |
| 20260902023016 | 53 | 159 | 1.0 | 2.0 | 0.00 | 0.00 | 0.00 | 88 | 1022.1 |
| 20260902022018 | 53 | 0.0 | 0.0 | 0.00 | 0.00 | 0.00 | 88 | 1022.2 | |
| 20260902021016 | 53 | 0.0 | 0.0 | 0.00 | 0.00 | 0.00 | 88 | 1022.1 | |
| 20260902020015 | 53 | 0.0 | 0.0 | 0.00 | 0.00 | 0.00 | 88 | 1022.1 | |
| 20260902015016 | 53 | 0.0 | 0.0 | 0.00 | 0.00 | 0.00 | 88 | 1022.2 | |
| 20260902014036 | 54 | 0.0 | 0.0 | 0.00 | 0.00 | 0.00 | 88 | 1022.2 | |
| 20260902013018 | 54 | 0.0 | 0.0 | 0.00 | 0.00 | 0.00 | 87 | 1022.2 | |
| 20260902012016 | 54 | 0.0 | 0.0 | 0.00 | 0.00 | 0.00 | 87 | 1022.2 | |
| 20260902011016 | 54 | 0.0 | 0.0 | 0.00 | 0.00 | 0.00 | 87 | 1022.2 | |
| 20260902010018 | 54 | 159 | 0.0 | 1.0 | 0.00 | 0.00 | 0.00 | 87 | 1022.2 |
| 20260902005016 | 54 | 159 | 0.0 | 2.0 | 0.00 | 0.00 | 0.00 | 88 | 1022.2 |
| 20260902004017 | 54 | 109 | 1.0 | 3.0 | 0.00 | 0.00 | 0.00 | 87 | 1022.3 |
| 20260902003016 | 54 | 0.0 | 0.0 | 0.00 | 0.00 | 0.00 | 87 | 1022.3 | |
| 20260902002038 | 55 | 86 | 0.0 | 1.0 | 0.00 | 0.00 | 0.00 | 87 | 1022.3 |
| 20260902001016 | 55 | 86 | 0.0 | 1.0 | 0.00 | 0.00 | 0.00 | 87 | 1022.3 |
| 20260902000016 | 55 | 70 | 0.0 | 1.0 | 0.00 | 0.00 | 0.00 | 87 | 1022.3 |
| 20260901235018 | 55 | 68 | 0.0 | 1.0 | 0.00 | 0.00 | 0.00 | 86 | 1022.4 |
| 20260901234016 | 55 | 0.0 | 0.0 | 0.00 | 0.00 | 0.00 | 86 | 1022.4 | |
| 20260901233022 | 55 | 58 | 0.0 | 2.0 | 0.00 | 0.00 | 0.00 | 86 | 1022.4 |
| 20260901232017 | 55 | 0.0 | 0.0 | 0.00 | 0.00 | 0.00 | 86 | 1022.4 | |
| 20260901231019 | 56 | 0.0 | 0.0 | 0.00 | 0.00 | 0.00 | 86 | 1022.4 | |
| 20260901230038 | 56 | 0.0 | 0.0 | 0.00 | 0.00 | 0.00 | 86 | 1022.5 | |
| 20260901225017 | 56 | 0.0 | 0.0 | 0.00 | 0.00 | 0.00 | 86 | 1022.5 | |
| 20260901224016 | 56 | 0.0 | 0.0 | 0.00 | 0.00 | 0.00 | 86 | 1022.5 | |
| 20260901223038 | 56 | 0.0 | 0.0 | 0.00 | 0.00 | 0.00 | 85 | 1022.5 | |
| 20260901222016 | 56 | 0.0 | 0.0 | 0.00 | 0.00 | 0.00 | 85 | 1022.4 | |
| 20260901221016 | 57 | 0.0 | 0.0 | 0.00 | 0.00 | 0.00 | 85 | 1022.5 | |
| 20260901220017 | 57 | 0.0 | 0.0 | 0.00 | 0.00 | 0.00 | 84 | 1022.6 | |
| 20260901215037 | 57 | 0.0 | 0.0 | 0.00 | 0.00 | 0.00 | 84 | 1022.7 | |
| 20260901214019 | 58 | 0.0 | 0.0 | 0.00 | 0.00 | 0.00 | 84 | 1022.6 | |
| 20260901213016 | 58 | 0.0 | 0.0 | 0.00 | 0.00 | 0.00 | 84 | 1022.6 | |
| 20260901212017 | 58 | 0.0 | 0.0 | 0.00 | 0.00 | 0.00 | 83 | 1022.6 | |
| 20260901211017 | 59 | 0.0 | 0.0 | 0.00 | 0.00 | 0.00 | 83 | 1022.6 | |
| 20260901210035 | 59 | 0.0 | 0.0 | 0.00 | 0.00 | 0.00 | 83 | 1022.6 | |
| 20260901205017 | 59 | 20 | 0.0 | 2.0 | 0.00 | 0.00 | 0.00 | 83 | 1022.6 |
| 20260901204016 | 60 | 20 | 0.0 | 1.0 | 0.00 | 0.00 | 0.00 | 82 | 1022.5 |
| 20260901203038 | 60 | 0.0 | 0.0 | 0.00 | 0.00 | 0.00 | 82 | 1022.4 | |
| 20260901202017 | 61 | 0.0 | 0.0 | 0.00 | 0.00 | 0.00 | 81 | 1022.3 | |
| 20260901201017 | 61 | 0.0 | 0.0 | 0.00 | 0.00 | 0.00 | 80 | 1022.2 | |
| 20260901200018 | 62 | 0.0 | 0.0 | 0.00 | 0.00 | 0.00 | 80 | 1022.2 | |
| 20260901195017 | 62 | 0.0 | 0.0 | 0.00 | 0.00 | 0.00 | 79 | 1022.1 | |
| 20260901194038 | 62 | 0.0 | 0.0 | 0.00 | 0.00 | 0.00 | 78 | 1022.1 | |
| 20260901193016 | 63 | 0.0 | 0.0 | 0.00 | 0.00 | 0.00 | 78 | 1022.0 | |
| 20260901192038 | 63 | 20 | 0.0 | 1.0 | 0.00 | 0.00 | 0.00 | 77 | 1022.0 |
| 20260901191037 | 63 | 0.0 | 0.0 | 0.00 | 0.00 | 0.00 | 76 | 1022.0 | |
| 20260901190038 | 64 | 0.0 | 0.0 | 0.00 | 0.00 | 0.00 | 75 | 1021.9 | |
| 20260901185016 | 64 | 0.0 | 0.0 | 0.00 | 0.00 | 0.00 | 74 | 1021.8 | |
| 20260901184036 | 65 | 0.0 | 0.0 | 0.00 | 0.00 | 0.00 | 73 | 1021.7 | |
| 20260901183018 | 66 | 20 | 0.0 | 1.0 | 0.00 | 0.00 | 0.00 | 71 | 1021.6 |
| 20260901182016 | 66 | 20 | 0.0 | 2.0 | 0.00 | 0.00 | 0.00 | 69 | 1021.5 |
| 20260901181017 | 67 | 18 | 1.0 | 3.0 | 0.00 | 0.00 | 0.00 | 67 | 1021.3 |
| 20260901180016 | 68 | 17 | 1.0 | 2.0 | 0.00 | 0.00 | 0.00 | 65 | 1021.3 |
| 20260901175019 | 69 | 21 | 2.0 | 4.0 | 0.00 | 0.00 | 0.00 | 65 | 1021.2 |
| 20260901174018 | 69 | 4 | 2.0 | 5.0 | 0.00 | 0.00 | 0.00 | 64 | 1021.2 |
| 20260901173116 | 70 | 355 | 1.0 | 4.0 | 0.00 | 0.00 | 0.00 | 62 | 1021.1 |